Time,TemperatureF,DewpointF,PressureIn,WindDirection,WindDirectionDegrees,WindSpeedMPH,WindSpeedGustMPH,Humidity,HourlyPrecipIn,Conditions,Clouds,dailyrainin,SoftwareType,DateUTC
2013-02-12 00:01:00,48.0,38.0,-100.00,NE,38,-999.0,15.0,68,-99.99,,,-99.99,,2013-02-12 08:01:00,
2013-02-12 00:11:00,48.0,38.0,-100.00,NE,38,-999.0,15.0,68,-99.99,,,-99.99,,2013-02-12 08:11:00,
2013-02-12 00:42:00,49.0,38.0,-100.00,NNE,21,-999.0,15.0,66,-99.99,,,-99.99,,2013-02-12 08:42:00,
2013-02-12 00:52:00,49.0,38.0,-100.00,NNE,21,-999.0,15.0,66,-99.99,,,-99.99,,2013-02-12 08:52:00,
2013-02-12 01:01:00,49.0,38.0,-100.00,NNE,21,-999.0,15.0,66,-99.99,,,-99.99,,2013-02-12 09:01:00,
2013-02-12 01:11:00,49.0,35.0,-100.00,NNE,17,-999.0,15.0,59,-99.99,,,-99.99,,2013-02-12 09:11:00,
2013-02-12 01:41:00,48.0,35.0,0.00,NNE,28,-999.0,-999.0,61,-99.99,,,-99.99,,2013-02-12 09:41:00,
2013-02-12 01:52:00,48.0,35.0,0.00,NNE,28,-999.0,-999.0,61,-99.99,,,-99.99,,2013-02-12 09:52:00,
2013-02-12 02:01:00,48.0,35.0,0.00,NNE,28,-999.0,-999.0,61,-99.99,,,-99.99,,2013-02-12 10:01:00,
2013-02-12 02:11:00,49.0,35.0,-100.00,NNE,16,-999.0,-999.0,58,-99.99,,,-99.99,,2013-02-12 10:11:00,
2013-02-12 02:21:00,49.0,35.0,-100.00,NNE,16,-999.0,-999.0,58,-99.99,,,-99.99,,2013-02-12 10:21:00,
2013-02-12 02:31:00,49.0,35.0,-100.00,NNE,16,-999.0,-999.0,58,-99.99,,,-99.99,,2013-02-12 10:31:00,
2013-02-12 02:43:00,49.0,34.0,-100.00,NNE,29,-999.0,-999.0,56,-99.99,,,-99.99,,2013-02-12 10:43:00,
2013-02-12 02:52:00,49.0,34.0,-100.00,NNE,29,-999.0,-999.0,56,-99.99,,,-99.99,,2013-02-12 10:52:00,
2013-02-12 03:01:00,49.0,34.0,-100.00,NNE,29,-999.0,-999.0,56,-99.99,,,-99.99,,2013-02-12 11:01:00,
2013-02-12 03:11:00,47.0,33.0,-100.00,NE,34,-999.0,15.0,59,-99.99,,,-99.99,,2013-02-12 11:11:00,
2013-02-12 03:21:00,47.0,33.0,-100.00,NE,34,-999.0,15.0,59,-99.99,,,-99.99,,2013-02-12 11:21:00,
2013-02-12 03:31:00,47.0,33.0,-100.00,NE,34,-999.0,15.0,59,-99.99,,,-99.99,,2013-02-12 11:31:00,
2013-02-12 03:41:00,48.0,33.0,-100.00,NE,43,-999.0,15.0,56,-99.99,,,-99.99,,2013-02-12 11:41:00,
2013-02-12 03:52:00,48.0,33.0,-100.00,NE,43,-999.0,15.0,56,-99.99,,,-99.99,,2013-02-12 11:52:00,
2013-02-12 04:01:00,48.0,33.0,-100.00,NE,43,-999.0,15.0,56,-99.99,,,-99.99,,2013-02-12 12:01:00,
2013-02-12 04:11:00,48.0,33.0,-100.00,NE,43,-999.0,15.0,56,-99.99,,,-99.99,,2013-02-12 12:11:00,
2013-02-12 04:42:00,48.0,30.0,0.00,NE,39,-999.0,15.0,50,-99.99,,,-99.99,,2013-02-12 12:42:00,
2013-02-12 04:52:00,48.0,30.0,0.00,NE,39,-999.0,15.0,50,-99.99,,,-99.99,,2013-02-12 12:52:00,
2013-02-12 05:01:00,48.0,30.0,0.00,NE,39,-999.0,15.0,50,-99.99,,,-99.99,,2013-02-12 13:01:00,
2013-02-12 05:11:00,48.0,29.0,-100.00,NNE,23,-999.0,15.0,48,-99.99,,,-99.99,,2013-02-12 13:11:00,
2013-02-12 05:22:00,48.0,29.0,-100.00,NNE,23,-999.0,15.0,48,-99.99,,,-99.99,,2013-02-12 13:22:00,
2013-02-12 05:31:00,48.0,29.0,-100.00,NNE,23,-999.0,15.0,48,-99.99,,,-99.99,,2013-02-12 13:31:00,
2013-02-12 05:42:00,48.0,29.0,-100.00,NE,41,-999.0,-999.0,47,-99.99,,,-99.99,,2013-02-12 13:42:00,
2013-02-12 05:52:00,48.0,29.0,-100.00,NE,41,-999.0,-999.0,47,-99.99,,,-99.99,,2013-02-12 13:52:00,
2013-02-12 06:01:00,48.0,29.0,-100.00,NE,41,-999.0,-999.0,47,-99.99,,,-99.99,,2013-02-12 14:01:00,
2013-02-12 06:11:00,48.0,28.0,-100.00,NNE,25,-999.0,15.0,45,-99.99,,,-99.99,,2013-02-12 14:11:00,
2013-02-12 06:21:00,48.0,28.0,-100.00,NNE,25,-999.0,15.0,45,-99.99,,,-99.99,,2013-02-12 14:21:00,
2013-02-12 06:31:00,48.0,28.0,-100.00,NNE,25,-999.0,15.0,45,-99.99,,,-99.99,,2013-02-12 14:31:00,
2013-02-12 06:41:00,48.0,27.0,-100.00,North,8,-999.0,15.0,43,-99.99,,,-99.99,,2013-02-12 14:41:00,
2013-02-12 06:52:00,48.0,27.0,-100.00,North,8,-999.0,15.0,43,-99.99,,,-99.99,,2013-02-12 14:52:00,
2013-02-12 07:01:00,48.0,27.0,-100.00,North,8,-999.0,15.0,43,-99.99,,,-99.99,,2013-02-12 15:01:00,
2013-02-12 07:42:00,50.0,26.0,0.00,NNE,22,-999.0,-999.0,39,-99.99,,,0.00,,2013-02-12 15:42:00,
2013-02-12 07:52:00,50.0,26.0,0.00,NNE,22,-999.0,-999.0,39,-99.99,,,0.00,,2013-02-12 15:52:00,
2013-02-12 08:01:00,50.0,26.0,0.00,NNE,22,-999.0,-999.0,39,-99.99,,,0.00,,2013-02-12 16:01:00,
2013-02-12 08:11:00,52.0,26.0,-100.00,NNE,22,-999.0,-999.0,36,-99.99,,,-99.99,,2013-02-12 16:11:00,
2013-02-12 08:22:00,52.0,26.0,-100.00,NNE,22,-999.0,-999.0,36,-99.99,,,-99.99,,2013-02-12 16:22:00,
2013-02-12 08:31:00,52.0,26.0,-100.00,NNE,22,-999.0,-999.0,36,-99.99,,,-99.99,,2013-02-12 16:31:00,
2013-02-12 08:41:00,54.0,26.0,-100.00,NE,47,-999.0,-999.0,34,-99.99,,,-99.99,,2013-02-12 16:41:00,
2013-02-12 08:52:00,54.0,26.0,-100.00,NE,47,-999.0,-999.0,34,-99.99,,,-99.99,,2013-02-12 16:52:00,
2013-02-12 09:01:00,54.0,26.0,-100.00,NE,47,-999.0,-999.0,34,-99.99,,,-99.99,,2013-02-12 17:01:00,
2013-02-12 09:11:00,55.0,26.0,-100.00,NNE,17,-999.0,15.0,32,-99.99,,,-99.99,,2013-02-12 17:11:00,
2013-02-12 09:21:00,55.0,26.0,-100.00,NNE,17,-999.0,15.0,32,-99.99,,,-99.99,,2013-02-12 17:21:00,
2013-02-12 09:31:00,55.0,26.0,-100.00,NNE,17,-999.0,15.0,32,-99.99,,,-99.99,,2013-02-12 17:31:00,
2013-02-12 09:41:00,55.0,26.0,-100.00,NNE,17,-999.0,15.0,32,-99.99,,,-99.99,,2013-02-12 17:41:00,
2013-02-12 10:42:00,61.0,27.0,0.00,ESE,122,-999.0,-999.0,27,-99.99,,,-99.99,,2013-02-12 18:42:00,
2013-02-12 10:52:00,61.0,27.0,0.00,ESE,122,-999.0,-999.0,27,-99.99,,,-99.99,,2013-02-12 18:52:00,
2013-02-12 11:02:00,61.0,27.0,0.00,ESE,122,-999.0,-999.0,27,-99.99,,,-99.99,,2013-02-12 19:02:00,
2013-02-12 11:11:00,65.0,34.0,-100.00,SSW,207,-999.0,15.0,31,-99.99,,,-99.99,,2013-02-12 19:11:00,
2013-02-12 11:41:00,65.0,34.0,-100.00,SSW,207,-999.0,15.0,31,-99.99,,,-99.99,,2013-02-12 19:41:00,
2013-02-12 12:11:00,60.0,44.0,-100.00,West,271,-999.0,15.0,55,-99.99,,,-99.99,,2013-02-12 20:11:00,
2013-02-12 12:41:00,60.0,42.0,-100.00,WNW,301,-999.0,-999.0,52,-99.99,,,0.00,,2013-02-12 20:41:00,
2013-02-12 12:52:00,60.0,42.0,-100.00,WNW,301,-999.0,-999.0,52,-99.99,,,0.00,,2013-02-12 20:52:00,
2013-02-12 13:01:00,60.0,42.0,-100.00,WNW,301,-999.0,-999.0,52,-99.99,,,0.00,,2013-02-12 21:01:00,
2013-02-12 13:11:00,62.0,44.0,-100.00,WNW,292,-999.0,15.0,52,-99.99,,,-99.99,,2013-02-12 21:11:00,
2013-02-12 13:21:00,62.0,44.0,-100.00,WNW,292,-999.0,15.0,52,-99.99,,,-99.99,,2013-02-12 21:21:00,
2013-02-12 13:31:00,62.0,44.0,-100.00,WNW,292,-999.0,15.0,52,-99.99,,,-99.99,,2013-02-12 21:31:00,
2013-02-12 13:41:00,60.0,44.0,0.00,West,259,-999.0,15.0,55,-99.99,,,-99.99,,2013-02-12 21:41:00,
2013-02-12 13:52:00,60.0,44.0,0.00,West,259,-999.0,15.0,55,-99.99,,,-99.99,,2013-02-12 21:52:00,
2013-02-12 14:01:00,60.0,44.0,0.00,West,259,-999.0,15.0,55,-99.99,,,-99.99,,2013-02-12 22:01:00,
2013-02-12 14:12:00,60.0,44.0,0.00,West,259,-999.0,15.0,55,-99.99,,,-99.99,,2013-02-12 22:12:00,
2013-02-12 16:11:00,60.0,37.0,-100.00,West,274,-999.0,15.0,42,-99.99,,,-99.99,,2013-02-13 00:11:00,
2013-02-12 16:21:00,60.0,37.0,-100.00,West,274,-999.0,15.0,42,-99.99,,,-99.99,,2013-02-13 00:21:00,
2013-02-12 16:32:00,60.0,37.0,-100.00,West,274,-999.0,15.0,42,-99.99,,,-99.99,,2013-02-13 00:32:00,
2013-02-12 16:42:00,60.0,37.0,-100.00,West,274,-999.0,15.0,42,-99.99,,,-99.99,,2013-02-13 00:42:00,
2013-02-12 18:11:00,55.0,43.0,-100.00,West,262,-999.0,15.0,65,-99.99,,,-99.99,,2013-02-13 02:11:00,
2013-02-12 18:21:00,55.0,43.0,-100.00,West,262,-999.0,15.0,65,-99.99,,,-99.99,,2013-02-13 02:21:00,
2013-02-12 18:31:00,55.0,43.0,-100.00,West,262,-999.0,15.0,65,-99.99,,,-99.99,,2013-02-13 02:31:00,
2013-02-12 18:41:00,54.0,44.0,-100.00,WSW,255,-999.0,-999.0,70,-99.99,,,0.00,,2013-02-13 02:41:00,
2013-02-12 18:52:00,54.0,44.0,-100.00,WSW,255,-999.0,-999.0,70,-99.99,,,0.00,,2013-02-13 02:52:00,
2013-02-12 19:01:00,54.0,44.0,-100.00,WSW,255,-999.0,-999.0,70,-99.99,,,0.00,,2013-02-13 03:01:00,
2013-02-12 19:11:00,54.0,44.0,-100.00,WSW,255,-999.0,-999.0,70,-99.99,,,0.00,,2013-02-13 03:11:00,
2013-02-12 19:42:00,53.0,48.0,0.00,West,271,-999.0,-999.0,84,-99.99,,,0.00,,2013-02-13 03:42:00,
2013-02-12 19:52:00,53.0,48.0,0.00,West,271,-999.0,-999.0,84,-99.99,,,0.00,,2013-02-13 03:52:00,
2013-02-12 20:01:00,53.0,48.0,0.00,West,271,-999.0,-999.0,84,-99.99,,,0.00,,2013-02-13 04:01:00,
2013-02-12 20:11:00,51.0,42.0,-100.00,North,349,-999.0,15.0,72,-99.99,,,-99.99,,2013-02-13 04:11:00,
2013-02-12 20:21:00,51.0,42.0,-100.00,North,349,-999.0,15.0,72,-99.99,,,-99.99,,2013-02-13 04:21:00,
2013-02-12 20:31:00,51.0,42.0,-100.00,North,349,-999.0,15.0,72,-99.99,,,-99.99,,2013-02-13 04:31:00,
2013-02-12 20:41:00,49.0,39.0,-100.00,NE,40,-999.0,15.0,69,-99.99,,,-99.99,,2013-02-13 04:41:00,
2013-02-12 20:52:00,49.0,39.0,-100.00,NE,40,-999.0,15.0,69,-99.99,,,-99.99,,2013-02-13 04:52:00,
2013-02-12 21:01:00,49.0,39.0,-100.00,NE,40,-999.0,15.0,69,-99.99,,,-99.99,,2013-02-13 05:01:00,
2013-02-12 21:11:00,49.0,42.0,-100.00,NE,39,-999.0,15.0,76,-99.99,,,-99.99,,2013-02-13 05:11:00,
2013-02-12 21:22:00,49.0,42.0,-100.00,NE,39,-999.0,15.0,76,-99.99,,,-99.99,,2013-02-13 05:22:00,
2013-02-12 21:31:00,49.0,42.0,-100.00,NE,39,-999.0,15.0,76,-99.99,,,-99.99,,2013-02-13 05:31:00,
2013-02-12 21:41:00,49.0,43.0,-100.00,NNE,22,-999.0,15.0,79,-99.99,,,0.00,,2013-02-13 05:41:00,
2013-02-12 21:52:00,49.0,43.0,-100.00,NNE,22,-999.0,15.0,79,-99.99,,,0.00,,2013-02-13 05:52:00,
2013-02-12 22:02:00,49.0,43.0,-100.00,NNE,22,-999.0,15.0,79,-99.99,,,0.00,,2013-02-13 06:02:00,
2013-02-12 22:11:00,49.0,44.0,-100.00,NNE,32,-999.0,15.0,82,-99.99,,,-99.99,,2013-02-13 06:11:00,
2013-02-12 23:42:00,47.0,38.0,-100.00,NNE,26,-999.0,15.0,70,-99.99,,,0.00,,2013-02-13 07:42:00,
2013-02-12 23:52:00,47.0,38.0,-100.00,NNE,26,-999.0,15.0,70,-99.99,,,0.00,,2013-02-13 07:52:00,